Wind_Speed
6 7 7 7 7 7 7 7 7 8 7 7 6 5 4 4 4 5 4 6 6 8 8 10 11 13 15 16 17 16 20 29 28 27 28 30 32 31 30 29 28 28 25 25 26
6 7 7 7 7 7 7 7 7 8 8 9 9 9 8 7 7 8 8 7 6 7 8 9 10 13 15 16 16 15 16 28 33 32 32 35 37 36 34 32 30 25 25 23 18
6 7 7 7 7 7 6 6 6 6 6 7 7 8 9 10 11 10 10 10 9 8 8 11 10 11 13 13 15 15 19 24 31 35 37 40 42 42 38 33 28 22 17 16 14
8 8 8 8 8 7 6 6 6 6 7 8 9 9 9 9 11 12 13 14 13 12 12 13 12 11 11 13 13 15 20 23 28 29 30 34 36 35 32 29 26 20 17 19 16
10 10 10 10 9 8 8 8 8 7 8 9 11 11 11 11 12 13 13 14 16 17 17 17 18 16 17 17 16 14 16 18 21 23 25 29 34 34 29 26 24 21 17 16 19
11 11 11 11 10 9 8 6 5 4 4 5 7 10 11 11 14 15 16 16 17 17 18 21 21 20 22 22 22 20 20 19 19 20 20 23 29 31 30 27 23 25 21 19 20
12 11 12 11 9 8 7 5 2 3 2 4 5 7 9 9 13 14 16 17 19 20 22 22 21 22 24 27 27 28 26 25 22 23 24 25 24 25 32 33 27 27 26 22 21
15 14 13 11 10 10 8 5 6 7 7 8 9 10 9 13 14 14 16 19 20 21 23 23 23 23 25 28 28 29 28 27 25 29 31 33 30 32 34 36 34 31 31 30 26
15 14 13 13 12 14 13 10 11 12 13 14 16 16 17 17 20 19 20 21 23 24 26 25 25 25 25 26 28 30 30 27 29 33 33 32 30 33 37 39 39 35 34 32 32
15 14 15 17 17 17 18 18 18 19 20 22 22 23 25 25 27 26 26 26 27 28 28 28 29 26 26 28 29 33 32 32 33 35 34 34 31 31 32 30 33 35 32 32 33
16 17 18 20 22 22 23 25 27 29 28 30 31 30 33 31 33 31 31 32 32 32 32 33 32 26 33 32 32 32 31 31 30 33 33 33 32 28 28 26 28 33 31 31 31
17 20 22 23 27 28 28 30 32 33 33 36 38 37 38 40 38 34 36 36 38 36 37 36 31 36 35 33 34 35 34 30 29 31 33 32 30 29 26 28 31 34 34 29 28
17 23 25 27 29 31 34 37 38 40 41 36 41 42 42 43 40 35 39 39 39 40 38 39 33 38 37 36 38 37 36 33 31 35 35 34 32 32 34 34 33 35 32 29 25
19 23 25 27 29 31 34 38 38 41 41 41 42 42 35 33 34 33 33 32 36 35 38 42 34 38 40 41 41 38 37 36 37 37 36 36 36 34 35 34 32 35 34 32 32
26 27 29 32 34 35 37 40 41 43 44 43 43 39 38 37 34 33 34 33 30 33 38 36 31 36 40 41 42 41 38 38 38 39 37 36 36 34 36 34 33 34 36 37 37
31 32 34 36 38 39 40 42 43 44 45 42 44 43 40 38 36 33 31 32 29 33 34 33 31 34 36 41 41 42 40 39 39 37 38 36 34 33 31 32 34 36 36 38 41
34 35 35 36 37 40 43 46 47 48 47 45 45 46 44 41 35 32 31 33 33 33 31 30 30 32 37 39 39 39 39 39 40 39 39 39 39 37 36 34 35 34 37 38 39
37 36 39 40 41 41 41 43 45 48 46 43 42 42 42 42 42 35 30 32 34 36 32 33 27 27 32 36 37 37 40 40 42 41 42 44 45 42 40 38 38 35 34 36 35
37 37 39 39 40 39 39 39 41 43 43 41 38 38 42 41 38 35 33 35 37 36 36 32 30 28 33 34 31 33 38 40 43 45 46 46 45 44 42 40 40 38 36 36 33
40 41 40 39 39 38 35 35 36 37 37 38 37 37 41 43 40 40 40 40 41 38 36 38 37 36 30 30 30 28 30 32 35 39 43 44 44 45 44 44 44 44 43 40 41
42 41 42 41 40 38 35 33 33 34 34 35 36 36 37 42 43 44 46 43 45 46 45 45 44 38 34 37 38 35 36 36 37 41 45 48 50 47 47 47 47 47 47 47 48
43 44 43 43 40 39 37 35 33 32 34 35 36 37 37 38 42 43 45 49 54 55 49 43 38 39 40 40 39 40 42 43 44 46 46 48 49 48 50 52 52 54 53 51 50
43 44 44 42 41 40 38 35 32 31 31 33 36 40 44 41 42 41 41 43 39 42 46 44 46 47 46 44 44 45 44 47 48 48 49 52 53 54 56 58 58 57 55 55 55
45 46 46 46 43 41 39 36 31 29 29 30 32 39 41 37 32 35 36 32 34 42 45 47 46 44 42 42 43 44 45 44 47 49 49 50 51 54 57 58 58 58 58 58 57
46 47 47 46 45 43 39 36 31 32 30 28 26 29 32 30 31 28 30 30 33 34 35 36 37 37 41 41 41 41 40 41 43 44 49 47 50 49 55 56 57 58 58 58 58
47 48 49 49 45 42 41 38 35 32 32 30 27 22 23 26 29 34 37 33 32 34 36 36 38 37 36 36 38 39 36 36 39 42 46 48 48 50 54 56 57 58 59 60 60
51 51 51 49 45 43 41 38 37 34 34 33 31 29 27 28 28 27 27 28 31 31 32 35 37 38 38 36 38 40 37 39 40 43 44 45 47 50 53 55 56 58 59 59 60
Wind_Direction
289 286 285 283 280 276 274 274 272 270 270 274 279 285 284 277 259 247 251 275 266 253 246 233 229 228 230 231 231 232 229 218 231 240 246 249 251 250 251 257 266 272 281 287 291
297 295 291 286 283 282 281 281 279 279 278 276 276 276 278 276 267 261 266 278 266 253 255 247 239 236 232 233 235 232 231 222 228 237 244 252 255 260 262 265 268 277 286 287 276
304 296 289 283 279 278 279 280 282 282 281 282 280 278 275 271 270 268 269 271 274 265 254 253 243 244 244 241 233 223 225 228 231 236 240 248 255 260 263 270 274 274 276 282 253
293 289 283 279 277 277 278 277 277 279 282 284 285 283 278 276 275 268 266 267 267 262 258 255 244 244 252 248 244 239 228 229 237 243 244 246 256 260 265 271 272 276 282 267 261
282 278 274 272 270 271 272 275 278 281 283 283 284 283 283 279 274 275 272 268 263 261 259 256 254 253 259 261 255 246 246 246 250 251 252 256 258 263 267 271 279 279 278 263 266
279 275 275 274 271 268 265 265 282 307 319 316 302 298 298 289 279 273 270 271 270 267 260 259 258 258 259 260 257 252 251 250 251 255 257 257 261 272 276 279 273 267 261 258 252
286 279 272 267 258 248 246 267 292 328 309 317 324 317 312 284 286 298 293 281 272 267 267 264 262 264 263 261 258 256 254 252 248 253 257 256 257 265 265 266 260 261 263 256 254
281 276 268 253 246 247 253 226 257 270 290 293 298 299 303 293 302 305 293 289 285 278 272 267 263 262 263 266 265 264 260 255 245 244 244 249 251 252 253 255 261 267 271 270 262
283 272 253 247 254 262 244 248 264 281 284 283 283 289 289 289 294 290 286 288 284 280 278 273 269 265 262 263 262 261 256 247 243 250 255 261 261 259 257 259 257 258 260 263 265
285 267 254 254 259 264 262 261 270 277 280 285 289 290 291 288 286 283 282 280 280 282 280 275 269 264 261 258 254 255 256 253 251 253 257 257 257 251 256 256 255 263 265 266 263
288 272 261 261 266 269 272 272 271 273 281 286 288 290 290 286 286 283 284 279 276 275 273 271 269 264 258 257 257 258 256 255 256 259 261 261 257 247 253 252 249 257 261 265 266
294 280 273 269 271 274 275 274 275 278 281 284 284 287 284 286 285 284 280 277 274 272 271 271 266 262 262 259 258 258 258 255 252 254 259 259 258 256 245 239 250 262 263 266 270
303 290 283 279 277 277 278 279 281 282 281 283 284 285 286 286 285 281 274 273 272 270 271 270 259 262 263 261 260 257 258 255 253 251 253 255 255 255 256 260 256 258 261 258 256
297 292 290 286 284 283 282 283 286 287 287 286 287 286 284 284 283 277 279 273 270 270 267 265 260 261 261 259 259 260 261 259 255 254 257 258 256 255 259 261 261 262 258 256 257
301 295 292 289 287 285 284 283 283 283 284 286 286 286 286 286 283 276 275 273 271 264 262 263 257 256 255 259 260 260 258 260 260 262 260 259 261 259 258 256 261 264 264 263 263
295 291 288 287 286 284 282 281 281 283 284 281 279 279 278 279 280 276 272 274 267 263 261 262 258 255 256 255 255 258 257 257 260 261 261 261 256 256 261 261 259 258 259 262 265
304 303 301 298 294 291 287 284 283 282 283 281 281 280 279 275 271 269 271 270 268 262 262 261 252 249 250 252 254 257 259 259 260 261 260 262 263 261 260 259 257 256 258 259 260
307 307 306 305 303 302 299 292 287 283 281 281 279 275 271 271 271 268 262 260 262 264 264 260 249 253 258 256 257 257 258 258 262 265 266 264 266 266 263 262 259 259 257 258 259
309 308 307 306 304 304 302 300 297 295 288 285 282 274 267 263 262 255 251 247 247 254 258 250 247 255 254 252 254 261 261 261 263 266 267 267 267 267 266 263 261 261 257 261 260
307 308 308 308 307 305 301 298 296 294 292 288 282 275 264 261 259 255 257 252 249 248 248 254 257 258 244 247 252 261 263 264 264 265 265 264 264 264 264 264 263 263 261 259 262
310 311 310 308 307 305 304 302 298 293 290 287 282 275 265 255 254 250 251 247 249 249 253 257 258 251 251 259 264 264 261 256 261 262 264 265 263 265 266 268 269 268 270 271 269
307 309 310 308 305 305 306 303 301 295 289 286 282 276 266 257 254 254 258 257 262 269 267 258 263 261 248 250 256 265 255 266 263 264 265 267 267 269 270 273 277 279 279 277 275
304 306 306 306 304 303 303 301 302 300 293 286 282 272 267 259 257 257 256 254 260 264 265 268 269 271 270 271 269 267 266 265 269 267 265 266 268 273 274 275 275 275 276 276 275
304 307 307 305 303 301 301 300 300 298 294 292 287 278 275 263 265 266 262 265 273 257 259 261 263 265 270 269 268 268 269 270 270 271 271 268 269 273 274 275 275 274 273 272 272
306 305 305 303 299 296 295 294 295 295 294 295 292 284 279 265 255 261 268 269 269 267 267 269 269 269 267 271 272 271 271 271 271 271 270 271 271 272 272 272 272 273 274 275 275
304 303 301 300 297 295 292 290 289 287 288 286 287 287 282 278 271 269 263 258 263 269 273 272 273 273 273 273 271 270 269 269 270 270 272 274 275 274 275 276 277 278 278 279 278
302 301 299 299 294 291 288 284 285 284 281 280 280 280 278 276 277 276 276 275 275 275 271 273 275 277 276 276 275 273 273 270 268 269 270 272 274 274 275 278 279 280 281 280 279
Height
5864 5864 5864 5864 5864 5864 5864 5864 5864 5863 5863 5863 5862 5862 5862 5861 5862 5862 5863 5865 5865 5866 5866 5867 5867 5868 5869 5870 5872 5874 5876 5879 5880 5879 5880 5881 5882 5885 5888 5892 5894 5896 5898 5899 5899
5863 5863 5863 5863 5863 5863 5863 5863 5862 5862 5862 5861 5861 5861 5861 5861 5861 5862 5863 5863 5863 5864 5866 5866 5866 5866 5867 5868 5870 5872 5874 5875 5876 5876 5876 5875 5877 5879 5884 5888 5890 5892 5893 5893 5895
5863 5863 5862 5862 5861 5861 5861 5861 5861 5861 5860 5860 5859 5859 5859 5859 5860 5860 5860 5861 5862 5862 5864 5864 5865 5865 5866 5867 5867 5869 5870 5871 5871 5872 5874 5872 5872 5874 5879 5882 5885 5888 5889 5889 5889
5862 5861 5860 5860 5860 5860 5859 5859 5859 5859 5859 5858 5858 5857 5857 5857 5859 5857 5858 5858 5859 5860 5861 5862 5862 5863 5864 5865 5866 5867 5866 5867 5867 5869 5871 5869 5868 5870 5874 5878 5880 5883 5886 5886 5885
5860 5859 5858 5858 5858 5858 5858 5858 5857 5857 5857 5856 5856 5855 5855 5856 5855 5855 5855 5855 5856 5857 5858 5859 5859 5860 5861 5862 5863 5864 5864 5865 5864 5866 5868 5867 5865 5865 5870 5873 5875 5878 5879 5882 5882
5858 5857 5856 5856 5856 5856 5856 5856 5856 5855 5855 5855 5854 5853 5852 5853 5851 5851 5852 5852 5852 5852 5853 5854 5855 5855 5856 5857 5859 5860 5860 5861 5861 5861 5863 5864 5862 5861 5863 5867 5870 5870 5873 5875 5877
5855 5855 5854 5854 5854 5854 5854 5855 5855 5854 5854 5853 5852 5851 5850 5850 5847 5847 5848 5848 5847 5848 5848 5848 5849 5850 5851 5851 5853 5854 5855 5855 5856 5856 5857 5858 5860 5859 5857 5858 5863 5865 5866 5869 5871
5853 5852 5852 5852 5852 5852 5852 5853 5853 5852 5852 5851 5850 5849 5848 5846 5845 5845 5844 5843 5843 5842 5842 5842 5843 5844 5845 5845 5847 5848 5849 5849 5848 5847 5848 5850 5853 5852 5852 5852 5855 5858 5860 5861 5864
5850 5850 5850 5850 5851 5851 5851 5850 5850 5850 5849 5848 5848 5846 5845 5844 5842 5841 5840 5840 5838 5838 5837 5838 5838 5839 5840 5840 5839 5840 5841 5842 5840 5841 5842 5845 5847 5847 5845 5845 5846 5851 5854 5855 5856
5848 5848 5848 5848 5848 5848 5848 5848 5847 5846 5845 5844 5843 5844 5841 5840 5838 5837 5836 5834 5833 5832 5832 5832 5831 5833 5833 5832 5832 5830 5834 5835 5835 5834 5836 5838 5840 5840 5839 5841 5841 5841 5845 5847 5848
5845 5845 5845 5845 5844 5844 5844 5843 5844 5843 5841 5840 5838 5837 5834 5834 5832 5831 5830 5828 5827 5826 5825 5824 5825 5827 5823 5824 5825 5825 5825 5827 5829 5829 5831 5833 5834 5837 5834 5835 5835 5835 5837 5839 5840
5842 5841 5841 5842 5840 5839 5838 5837 5835 5835 5836 5832 5830 5829 5826 5824 5824 5824 5821 5820 5818 5818 5816 5818 5819 5815 5816 5816 5817 5817 5819 5822 5822 5822 5824 5825 5827 5828 5830 5827 5828 5829 5831 5832 5834
5839 5836 5835 5835 5834 5833 5831 5828 5827 5826 5824 5826 5822 5819 5817 5815 5814 5814 5811 5810 5810 5808 5809 5808 5810 5807 5808 5810 5810 5810 5812 5815 5816 5814 5815 5818 5820 5821 5820 5821 5824 5824 5825 5826 5828
5835 5832 5831 5828 5829 5825 5823 5820 5819 5816 5814 5814 5810 5808 5808 5806 5804 5802 5800 5801 5799 5801 5799 5796 5801 5800 5800 5801 5801 5804 5805 5807 5807 5808 5810 5811 5814 5815 5814 5815 5815 5815 5816 5818 5820
5830 5828 5825 5822 5820 5818 5816 5812 5809 5807 5804 5802 5799 5797 5795 5796 5795 5792 5791 5790 5792 5791 5788 5790 5792 5792 5791 5792 5792 5795 5796 5798 5799 5801 5802 5804 5806 5806 5806 5808 5808 5808 5808 5809 5810
5822 5820 5817 5814 5811 5808 5805 5802 5800 5798 5793 5792 5788 5785 5784 5782 5781 5782 5782 5781 5783 5780 5779 5781 5783 5782 5783 5783 5784 5785 5788 5790 5791 5792 5793 5795 5797 5797 5799 5800 5800 5800 5800 5800 5801
5813 5810 5807 5804 5802 5798 5795 5792 5790 5786 5784 5781 5780 5777 5776 5773 5771 5771 5771 5769 5769 5770 5772 5773 5774 5774 5773 5774 5777 5779 5780 5781 5783 5784 5786 5786 5787 5788 5789 5790 5790 5791 5791 5792 5793
5804 5801 5798 5794 5790 5787 5783 5781 5777 5773 5771 5770 5768 5766 5764 5762 5760 5761 5762 5761 5760 5759 5762 5762 5764 5766 5767 5768 5771 5772 5773 5774 5772 5775 5777 5776 5774 5777 5778 5778 5780 5781 5782 5783 5784
5796 5793 5790 5786 5782 5778 5775 5770 5766 5763 5760 5759 5758 5757 5754 5752 5751 5750 5749 5750 5749 5752 5753 5755 5756 5759 5759 5761 5764 5764 5765 5766 5765 5764 5764 5766 5766 5766 5767 5767 5767 5769 5772 5773 5774
5789 5785 5781 5776 5773 5769 5765 5760 5756 5753 5750 5747 5747 5748 5746 5744 5743 5742 5741 5741 5741 5742 5744 5745 5747 5749 5750 5752 5753 5754 5755 5756 5756 5753 5751 5752 5754 5754 5756 5756 5757 5757 5760 5763 5763
5779 5775 5770 5766 5762 5758 5753 5749 5745 5742 5739 5738 5736 5735 5737 5736 5734 5733 5732 5732 5732 5732 5733 5735 5736 5739 5739 5740 5743 5744 5744 5745 5745 5743 5740 5739 5741 5744 5745 5745 5745 5746 5748 5748 5750
5769 5765 5759 5755 5752 5747 5743 5740 5736 5732 5729 5727 5725 5725 5725 5724 5722 5721 5721 5721 5720 5718 5720 5721 5722 5725 5727 5726 5730 5732 5733 5734 5733 5732 5731 5729 5730 5732 5732 5731 5732 5732 5733 5735 5737
5759 5754 5751 5745 5741 5737 5733 5730 5726 5722 5719 5717 5716 5714 5711 5711 5709 5708 5709 5710 5711 5712 5712 5714 5714 5715 5717 5720 5721 5720 5720 5722 5723 5722 5721 5720 5720 5719 5718 5717 5716 5718 5719 5720 5720
5747 5743 5738 5734 5729 5725 5721 5719 5715 5713 5709 5706 5705 5702 5701 5700 5699 5699 5700 5700 5700 5701 5703 5704 5706 5707 5708 5710 5710 5711 5711 5711 5711 5710 5710 5709 5710 5708 5705 5704 5703 5702 5701 5702 5703
5736 5732 5727 5722 5718 5714 5711 5708 5705 5702 5700 5697 5696 5694 5692 5691 5690 5691 5691 5691 5691 5691 5691 5692 5694 5695 5696 5698 5698 5699 5700 5699 5698 5698 5695 5699 5697 5697 5692 5691 5689 5688 5687 5687 5687
5724 5720 5716 5711 5706 5703 5700 5699 5696 5693 5691 5689 5687 5686 5685 5684 5683 5683 5683 5682 5682 5682 5682 5682 5683 5685 5686 5686 5687 5688 5690 5689 5688 5687 5685 5684 5684 5682 5678 5676 5673 5672 5670 5669 5669
5711 5706 5702 5698 5693 5690 5689 5686 5684 5683 5681 5680 5679 5678 5678 5677 5676 5675 5675 5675 5674 5676 5676 5676 5675 5674 5674 5675 5674 5676 5678 5677 5676 5675 5675 5674 5671 5667 5664 5661 5659 5655 5652 5652 5651